| time (UTC) | temp F | wind direction | speed knots | gust knots | rain 1hr in | rain 24hr in | rain mn in | humidity % | barometer mb |
| 20260504202556 | 77 | 224 | 14.8 | 25.2 | 0.00 | 0.00 | 0.00 | 42 | 1011.2 |
| 20260504202056 | 77 | 206 | 18.2 | 25.2 | 0.00 | 0.00 | 0.00 | 39 | 1011.3 |
| 20260504201600 | 78 | 186 | 16.5 | 23.5 | 0.00 | 0.00 | 0.00 | 41 | 1011.6 |
| 20260504201059 | 78 | 232 | 14.8 | 23.5 | 0.00 | 0.00 | 0.00 | 41 | 1011.7 |
| 20260504200552 | 78 | 229 | 15.6 | 22.6 | 0.00 | 0.00 | 0.00 | 40 | 1011.6 |
| 20260504200056 | 77 | 230 | 13.0 | 23.5 | 0.00 | 0.00 | 0.00 | 41 | 1011.6 |
| 20260504195551 | 78 | 236 | 16.5 | 26.1 | 0.00 | 0.00 | 0.00 | 41 | 1011.9 |
| 20260504195052 | 78 | 224 | 16.5 | 28.7 | 0.00 | 0.00 | 0.00 | 42 | 1012.1 |
| 20260504194553 | 77 | 229 | 12.2 | 28.7 | 0.00 | 0.00 | 0.00 | 42 | 1012.0 |
| 20260504194052 | 77 | 226 | 17.4 | 28.7 | 0.00 | 0.00 | 0.00 | 41 | 1012.2 |
| 20260504193552 | 77 | 216 | 13.9 | 22.6 | 0.00 | 0.00 | 0.00 | 42 | 1012.2 |
| 20260504193054 | 78 | 164 | 15.6 | 23.5 | 0.00 | 0.00 | 0.00 | 41 | 1012.4 |
| 20260504192551 | 77 | 189 | 12.2 | 26.1 | 0.00 | 0.00 | 0.00 | 43 | 1012.4 |
| 20260504192054 | 77 | 209 | 17.4 | 26.1 | 0.00 | 0.00 | 0.00 | 41 | 1012.8 |
| 20260504191604 | 77 | 197 | 19.1 | 26.1 | 0.00 | 0.00 | 0.00 | 42 | 1012.7 |
| 20260504191051 | 77 | 207 | 12.2 | 26.1 | 0.00 | 0.00 | 0.00 | 42 | 1012.7 |
| 20260504190551 | 77 | 235 | 20.0 | 26.1 | 0.00 | 0.00 | 0.00 | 42 | 1012.8 |
| 20260504185552 | 76 | 231 | 9.6 | 21.7 | 0.00 | 0.00 | 0.00 | 42 | 1012.8 |
| 20260504185052 | 77 | 226 | 13.9 | 25.2 | 0.00 | 0.00 | 0.00 | 45 | 1012.9 |
| 20260504184555 | 77 | 210 | 15.6 | 25.2 | 0.00 | 0.00 | 0.00 | 41 | 1012.9 |
| 20260504184052 | 77 | 236 | 14.8 | 24.3 | 0.00 | 0.00 | 0.00 | 42 | 1012.9 |
| 20260504183552 | 77 | 221 | 13.0 | 23.5 | 0.00 | 0.00 | 0.00 | 42 | 1013.0 |
| 20260504183059 | 77 | 223 | 14.8 | 23.5 | 0.00 | 0.00 | 0.00 | 42 | 1013.1 |
| 20260504182554 | 76 | 253 | 12.2 | 22.6 | 0.00 | 0.00 | 0.00 | 43 | 1013.1 |
| 20260504182054 | 76 | 231 | 10.4 | 21.7 | 0.00 | 0.00 | 0.00 | 43 | 1013.3 |
| 20260504181558 | 76 | 226 | 9.6 | 21.7 | 0.00 | 0.00 | 0.00 | 44 | 1013.3 |
| 20260504181052 | 76 | 219 | 12.2 | 24.3 | 0.00 | 0.00 | 0.00 | 42 | 1013.4 |
| 20260504180552 | 76 | 243 | 15.6 | 24.3 | 0.00 | 0.00 | 0.00 | 44 | 1013.6 |
| 20260504175555 | 76 | 238 | 16.5 | 26.1 | 0.00 | 0.00 | 0.00 | 43 | 1013.6 |
| 20260504175052 | 76 | 245 | 13.0 | 24.3 | 0.00 | 0.00 | 0.00 | 43 | 1013.5 |
| 20260504174552 | 76 | 211 | 16.5 | 26.1 | 0.00 | 0.00 | 0.00 | 44 | 1013.6 |
| 20260504174052 | 76 | 237 | 16.5 | 26.1 | 0.00 | 0.00 | 0.00 | 42 | 1013.6 |
| 20260504173553 | 76 | 226 | 17.4 | 26.1 | 0.00 | 0.00 | 0.00 | 42 | 1013.7 |
| 20260504173052 | 76 | 237 | 17.4 | 26.1 | 0.00 | 0.00 | 0.00 | 43 | 1013.7 |
| 20260504172552 | 76 | 212 | 19.1 | 26.1 | 0.00 | 0.00 | 0.00 | 40 | 1013.8 |
| 20260504172053 | 76 | 203 | 13.9 | 26.1 | 0.00 | 0.00 | 0.00 | 42 | 1013.8 |
| 20260504171551 | 76 | 239 | 14.8 | 22.6 | 0.00 | 0.00 | 0.00 | 43 | 1013.8 |
| 20260504171055 | 76 | 210 | 16.5 | 23.5 | 0.00 | 0.00 | 0.00 | 44 | 1013.8 |
| 20260504170555 | 76 | 211 | 14.8 | 23.5 | 0.00 | 0.00 | 0.00 | 42 | 1014.0 |
| 20260504151053 | 72 | 252 | 14.8 | 20.9 | 0.00 | 0.00 | 0.00 | 57 | 1014.9 |
| 20260504150553 | 72 | 235 | 9.6 | 16.5 | 0.00 | 0.00 | 0.00 | 58 | 1014.9 |
| 20260504141056 | 67 | 240 | 12.2 | 18.2 | 0.00 | 0.00 | 0.00 | 67 | 1015.1 |
| 20260504140556 | 67 | 230 | 13.0 | 18.2 | 0.00 | 0.00 | 0.00 | 67 | 1015.1 |
| 20260504130552 | 63 | 230 | 8.7 | 12.2 | 0.00 | 0.00 | 0.00 | 76 | 1014.6 |
| 20260504110554 | 57 | 0 | 0.0 | 0.0 | 0.00 | 0.00 | 0.00 | 83 | 1013.8 |
| 20260504100558 | 57 | 0 | 0.0 | 5.2 | 0.00 | 0.00 | 0.00 | 83 | 1013.9 |
| 20260504081555 | 59 | 0 | 0.0 | 0.0 | 0.00 | 0.00 | 0.00 | 78 | 1014.3 |
| 20260504081055 | 60 | 0 | 0.0 | 0.0 | 0.00 | 0.00 | 0.00 | 78 | 1014.4 |
| 20260504080557 | 60 | 0 | 0.0 | 0.0 | 0.00 | 0.00 | 0.00 | 77 | 1014.5 |
| 20260504050554 | 62 | 170 | 3.5 | 5.2 | 0.00 | 0.00 | 0.00 | 70 | 1015.8 |
| 20260504050109 | 62 | 161 | 3.5 | 6.1 | 0.00 | 0.00 | 0.00 | 70 | 1015.7 |
| 20260504045556 | 62 | 0 | 0.0 | 6.1 | 0.00 | 0.00 | 0.00 | 70 | 1015.9 |
| 20260504045055 | 62 | 0 | 2.6 | 6.1 | 0.00 | 0.00 | 0.00 | 69 | 1015.9 |
| 20260504044600 | 63 | 161 | 0.9 | 5.2 | 0.00 | 0.00 | 0.00 | 69 | 1015.9 |
| 20260504044053 | 63 | 173 | 2.6 | 6.1 | 0.00 | 0.00 | 0.00 | 68 | 1015.9 |
| 20260504043552 | 63 | 189 | 0.0 | 7.0 | 0.00 | 0.00 | 0.00 | 68 | 1015.9 |
| 20260504043059 | 63 | 0 | 5.2 | 7.0 | 0.00 | 0.00 | 0.00 | 67 | 1016.0 |
| 20260504042552 | 63 | 179 | 1.7 | 6.1 | 0.00 | 0.00 | 0.00 | 67 | 1015.9 |
| 20260504042052 | 63 | 0 | 0.0 | 0.0 | 0.00 | 0.00 | 0.00 | 66 | 1015.9 |
| 20260504041600 | 63 | 0 | 0.0 | 0.0 | 0.00 | 0.00 | 0.00 | 66 | 1015.9 |
| 20260504041053 | 63 | 0 | 0.0 | 0.0 | 0.00 | 0.00 | 0.00 | 65 | 1015.9 |
| 20260504040555 | 63 | 0 | 0.0 | 0.0 | 0.00 | 0.00 | 0.00 | 65 | 1015.9 |
| 20260504035556 | 63 | 0 | 0.0 | 0.0 | 0.00 | 0.00 | 0.00 | 64 | 1015.9 |
| 20260504035055 | 63 | 0 | 0.0 | 6.1 | 0.00 | 0.00 | 0.00 | 64 | 1015.8 |
| 20260504034557 | 64 | 0 | 0.9 | 6.1 | 0.00 | 0.00 | 0.00 | 63 | 1015.8 |
| 20260504034057 | 64 | 177 | 4.3 | 6.1 | 0.00 | 0.00 | 0.00 | 62 | 1015.9 |
| 20260504033555 | 64 | 0 | 0.0 | 6.1 | 0.00 | 0.00 | 0.00 | 62 | 1015.9 |
| 20260504033053 | 64 | 0 | 3.5 | 6.1 | 0.00 | 0.00 | 0.00 | 61 | 1015.9 |
| 20260504032555 | 64 | 186 | 0.0 | 0.0 | 0.00 | 0.00 | 0.00 | 61 | 1015.9 |
| 20260504032058 | 64 | 0 | 0.0 | 0.0 | 0.00 | 0.00 | 0.00 | 61 | 1015.8 |
| 20260504031555 | 64 | 0 | 0.0 | 0.0 | 0.00 | 0.00 | 0.00 | 60 | 1015.9 |
| 20260504031052 | 65 | 0 | 0.0 | 0.0 | 0.00 | 0.00 | 0.00 | 60 | 1016.0 |
| 20260504030555 | 65 | 0 | 0.0 | 4.3 | 0.00 | 0.00 | 0.00 | 59 | 1015.9 |
| 20260504030055 | 65 | 0 | 0.0 | 4.3 | 0.00 | 0.00 | 0.00 | 59 | 1015.9 |
| 20260504025555 | 65 | 0 | 0.0 | 4.3 | 0.00 | 0.00 | 0.00 | 59 | 1015.9 |
| 20260504025052 | 65 | 0 | 0.0 | 0.0 | 0.00 | 0.00 | 0.00 | 58 | 1015.8 |
| 20260504024609 | 65 | 0 | 0.0 | 0.0 | 0.00 | 0.00 | 0.00 | 58 | 1015.9 |
| 20260504024053 | 65 | 0 | 0.0 | 0.0 | 0.00 | 0.00 | 0.00 | 58 | 1015.9 |
| 20260504023555 | 65 | 0 | 0.0 | 3.5 | 0.00 | 0.00 | 0.00 | 58 | 1015.9 |
| 20260504023054 | 66 | 0 | 0.0 | 3.5 | 0.00 | 0.00 | 0.00 | 57 | 1015.8 |
| 20260504022557 | 66 | 0 | 0.0 | 2.6 | 0.00 | 0.00 | 0.00 | 55 | 1015.7 |
| 20260504022055 | 66 | 0 | 0.0 | 5.2 | 0.00 | 0.00 | 0.00 | 55 | 1015.7 |
| 20260504021555 | 67 | 0 | 0.0 | 5.2 | 0.00 | 0.00 | 0.00 | 54 | 1015.6 |
| 20260504021055 | 67 | 0 | 0.9 | 5.2 | 0.00 | 0.00 | 0.00 | 53 | 1015.6 |
| 20260504020557 | 67 | 0 | 0.0 | 4.3 | 0.00 | 0.00 | 0.00 | 52 | 1015.6 |
| 20260504020057 | 68 | 0 | 0.0 | 4.3 | 0.00 | 0.00 | 0.00 | 52 | 1015.5 |
| 20260504015556 | 68 | 0 | 0.9 | 4.3 | 0.00 | 0.00 | 0.00 | 51 | 1015.5 |
| 20260504015056 | 68 | 0 | 0.0 | 3.5 | 0.00 | 0.00 | 0.00 | 50 | 1015.4 |
| 20260504014605 | 68 | 0 | 0.0 | 3.5 | 0.00 | 0.00 | 0.00 | 50 | 1015.5 |
| 20260504014055 | 69 | 0 | 0.0 | 3.5 | 0.00 | 0.00 | 0.00 | 49 | 1015.4 |
| 20260504013555 | 69 | 0 | 0.9 | 3.5 | 0.00 | 0.00 | 0.00 | 49 | 1015.4 |
| 20260504013058 | 69 | 0 | 0.0 | 0.0 | 0.00 | 0.00 | 0.00 | 49 | 1015.4 |
| 20260504012555 | 69 | 0 | 0.0 | 0.0 | 0.00 | 0.00 | 0.00 | 48 | 1015.4 |
| 20260504012054 | 70 | 0 | 0.0 | 0.0 | 0.00 | 0.00 | 0.00 | 48 | 1015.4 |
| 20260504011631 | 71 | 0 | 0.0 | 0.0 | 0.00 | 0.00 | 0.00 | 47 | 1015.4 |
| 20260504011054 | 71 | 0 | 0.0 | 0.0 | 0.00 | 0.00 | 0.00 | 46 | 1015.3 |
| 20260504010552 | 72 | 0 | 0.0 | 0.0 | 0.00 | 0.00 | 0.00 | 44 | 1015.2 |
| 20260504010104 | 72 | 0 | 0.0 | 0.0 | 0.00 | 0.00 | 0.00 | 45 | 1015.2 |
| 20260504005553 | 72 | 0 | 0.0 | 0.0 | 0.00 | 0.00 | 0.00 | 45 | 1015.0 |
| 20260504005057 | 72 | 0 | 0.0 | 0.0 | 0.00 | 0.00 | 0.00 | 46 | 1015.1 |
| 20260504004553 | 73 | 0 | 0.0 | 3.5 | 0.00 | 0.00 | 0.00 | 44 | 1015.1 |
| 20260504004055 | 73 | 0 | 0.0 | 3.5 | 0.00 | 0.00 | 0.00 | 43 | 1015.0 |
| 20260504003556 | 74 | 210 | 0.0 | 0.0 | 0.00 | 0.00 | 0.00 | 42 | 1015.1 |
| 20260504003056 | 74 | 0 | 0.0 | 0.0 | 0.00 | 0.00 | 0.00 | 41 | 1015.0 |
| 20260504002555 | 74 | 0 | 0.0 | 0.0 | 0.00 | 0.00 | 0.00 | 40 | 1014.8 |
| 20260504002055 | 74 | 0 | 0.0 | 0.0 | 0.00 | 0.00 | 0.00 | 40 | 1014.8 |
| 20260504001556 | 75 | 0 | 0.0 | 6.1 | 0.00 | 0.00 | 0.00 | 39 | 1014.9 |
| 20260504001052 | 75 | 0 | 0.0 | 6.1 | 0.00 | 0.00 | 0.00 | 38 | 1015.0 |
| 20260504000557 | 75 | 0 | 0.0 | 8.7 | 0.00 | 0.00 | 0.00 | 38 | 1015.0 |
| 20260504000137 | 75 | 0 | 0.9 | 8.7 | 0.00 | 0.00 | 0.00 | 38 | 1015.1 |
| 20260503235554 | 75 | 218 | 0.9 | 13.0 | 0.00 | 0.00 | 0.00 | 39 | 1015.1 |
| 20260503235053 | 75 | 221 | 4.3 | 13.0 | 0.00 | 0.00 | 0.00 | 38 | 1015.2 |
| 20260503234601 | 76 | 214 | 9.6 | 13.0 | 0.00 | 0.00 | 0.00 | 37 | 1015.2 |
| 20260503234058 | 76 | 198 | 4.3 | 14.8 | 0.00 | 0.00 | 0.00 | 38 | 1015.3 |
| 20260503233553 | 76 | 0 | 1.7 | 14.8 | 0.00 | 0.00 | 0.00 | 39 | 1015.3 |
| 20260503233054 | 76 | 263 | 7.8 | 14.8 | 0.00 | 0.00 | 0.00 | 38 | 1015.3 |
| 20260503232552 | 76 | 0 | 0.0 | 8.7 | 0.00 | 0.00 | 0.00 | 39 | 1015.5 |
| 20260503232055 | 76 | 0 | 0.9 | 9.6 | 0.00 | 0.00 | 0.00 | 38 | 1015.5 |
| 20260503231556 | 76 | 254 | 0.9 | 9.6 | 0.00 | 0.00 | 0.00 | 36 | 1015.6 |
| 20260503231052 | 76 | 250 | 0.0 | 9.6 | 0.00 | 0.00 | 0.00 | 38 | 1015.6 |
| 20260503230552 | 76 | 0 | 2.6 | 9.6 | 0.00 | 0.00 | 0.00 | 35 | 1015.6 |
| 20260503230056 | 76 | 0 | 2.6 | 9.6 | 0.00 | 0.00 | 0.00 | 36 | 1015.7 |
| 20260503225553 | 76 | 210 | 4.3 | 9.6 | 0.00 | 0.00 | 0.00 | 35 | 1015.6 |
| 20260503225052 | 76 | 0 | 4.3 | 9.6 | 0.00 | 0.00 | 0.00 | 36 | 1015.8 |
| 20260503224554 | 77 | 0 | 0.0 | 7.8 | 0.00 | 0.00 | 0.00 | 36 | 1015.8 |
| 20260503224055 | 76 | 0 | 0.9 | 10.4 | 0.00 | 0.00 | 0.00 | 36 | 1015.7 |
| 20260503223553 | 77 | 0 | 0.0 | 10.4 | 0.00 | 0.00 | 0.00 | 35 | 1015.8 |
| 20260503223058 | 77 | 0 | 2.6 | 10.4 | 0.00 | 0.00 | 0.00 | 34 | 1015.9 |
| 20260503222552 | 76 | 0 | 0.0 | 8.7 | 0.00 | 0.00 | 0.00 | 36 | 1015.9 |
| 20260503222052 | 76 | 0 | 0.9 | 10.4 | 0.00 | 0.00 | 0.00 | 37 | 1016.1 |
| 20260503221557 | 76 | 0 | 0.0 | 13.9 | 0.00 | 0.00 | 0.00 | 39 | 1016.1 |
| 20260503221055 | 77 | 236 | 7.0 | 13.9 | 0.00 | 0.00 | 0.00 | 37 | 1016.2 |
| 20260503220552 | 77 | 0 | 0.0 | 9.6 | 0.00 | 0.00 | 0.00 | 37 | 1016.1 |
| 20260503220057 | 76 | 0 | 1.7 | 13.9 | 0.00 | 0.00 | 0.00 | 37 | 1016.1 |
| 20260503215551 | 76 | 0 | 0.9 | 15.6 | 0.00 | 0.00 | 0.00 | 39 | 1016.3 |
| 20260503215051 | 76 | 250 | 9.6 | 15.6 | 0.00 | 0.00 | 0.00 | 37 | 1016.4 |
| 20260503214555 | 76 | 230 | 6.1 | 13.9 | 0.00 | 0.00 | 0.00 | 38 | 1016.5 |
| 20260503214052 | 76 | 212 | 0.0 | 9.6 | 0.00 | 0.00 | 0.00 | 40 | 1016.4 |
| 20260503213552 | 76 | 0 | 3.5 | 11.3 | 0.00 | 0.00 | 0.00 | 37 | 1016.4 |
| 20260503213100 | 76 | 0 | 5.2 | 11.3 | 0.00 | 0.00 | 0.00 | 40 | 1016.5 |
| 20260503212558 | 76 | 242 | 2.6 | 15.6 | 0.00 | 0.00 | 0.00 | 39 | 1016.6 |
| 20260503212055 | 76 | 308 | 0.0 | 15.6 | 0.00 | 0.00 | 0.00 | 38 | 1016.6 |
| 20260503211615 | 75 | 286 | 7.8 | 15.6 | 0.00 | 0.00 | 0.00 | 37 | 1016.7 |
| 20260503211052 | 75 | 0 | 4.3 | 15.6 | 0.00 | 0.00 | 0.00 | 38 | 1016.8 |
| 20260503210555 | 75 | 271 | 7.8 | 13.0 | 0.00 | 0.00 | 0.00 | 39 | 1016.9 |
| 20260503210056 | 75 | 255 | 0.0 | 11.3 | 0.00 | 0.00 | 0.00 | 38 | 1016.9 |
| 20260503205552 | 75 | 0 | 1.7 | 15.6 | 0.00 | 0.00 | 0.00 | 37 | 1016.9 |
| 20260503205053 | 74 | 234 | 7.0 | 16.5 | 0.00 | 0.00 | 0.00 | 37 | 1017.1 |
| 20260503204555 | 75 | 253 | 8.7 | 16.5 | 0.00 | 0.00 | 0.00 | 38 | 1017.2 |
| 20260503204056 | 75 | 294 | 5.2 | 17.4 | 0.00 | 0.00 | 0.00 | 36 | 1017.3 |
| 20260503203555 | 75 | 244 | 13.0 | 17.4 | 0.00 | 0.00 | 0.00 | 38 | 1017.5 |
| 20260503203114 | 75 | 283 | 9.6 | 13.9 | 0.00 | 0.00 | 0.00 | 37 | 1017.5 |